Wind_Speed
37 39 39 38 38 40 41 40 42 40 37 37 36 36 35 32 32 30 27 24 23 24 25 29 30 27 26 24 22 23 22 23 25 26 22 23 24 23 24 24 27 25 26 30
36 41 41 39 40 42 40 41 42 39 36 38 38 37 36 34 32 30 26 24 25 26 24 26 25 28 27 23 21 21 19 22 26 21 20 22 25 26 25 25 24 23 23 25
40 44 44 43 41 41 42 43 41 38 37 38 38 37 35 33 32 33 28 25 26 28 28 24 24 26 26 22 21 19 17 19 19 17 19 24 21 20 22 24 22 23 21 20
47 47 45 45 42 42 42 41 42 40 39 39 36 36 36 35 35 32 29 28 27 26 25 23 23 26 22 21 19 19 16 17 17 16 21 18 19 21 21 22 21 24 18 12
47 48 47 41 42 42 41 42 42 42 41 40 38 36 37 36 36 35 30 27 27 25 24 23 21 24 21 20 18 16 16 16 15 16 13 14 15 13 16 9 14 21 20 19
48 46 45 43 43 43 42 43 44 44 44 43 42 39 39 40 37 37 36 29 26 26 29 27 23 23 19 19 17 14 14 14 17 15 12 16 14 5 7 6 9 14 18 21
45 44 42 41 42 42 45 46 47 47 47 47 45 44 40 41 41 37 37 34 31 25 28 27 24 25 19 17 17 14 15 16 18 16 12 12 12 9 6 2 6 8 13 15
42 41 41 41 42 44 47 49 48 49 49 49 50 48 45 43 41 39 37 36 34 29 29 29 24 25 22 17 13 12 13 13 18 15 13 11 11 9 8 2 4 7 16 22
39 40 41 42 43 47 49 49 50 51 51 54 54 50 43 40 41 40 40 35 35 33 30 34 32 23 24 19 10 11 13 14 18 18 13 12 9 5 7 2 7 14 22 23
38 41 42 43 46 49 49 50 52 55 56 58 55 47 42 36 35 37 39 38 34 34 34 32 31 32 30 23 12 13 17 17 16 17 17 15 11 9 7 9 8 9 17 17
37 40 43 46 49 49 49 52 55 58 59 54 48 39 39 33 31 31 32 36 34 33 35 33 30 28 29 23 16 14 20 18 18 15 16 17 15 17 13 13 12 14 15 16
39 41 44 48 49 50 50 52 56 58 51 38 38 36 34 27 26 24 23 23 28 32 33 33 30 29 30 22 20 16 21 22 20 18 15 17 16 17 19 19 15 16 16 17
41 43 46 47 49 50 51 53 57 55 40 34 34 36 35 31 30 31 27 23 23 27 31 31 31 31 31 25 22 16 20 24 23 23 21 20 18 18 17 17 16 17 18 17
41 44 46 49 49 49 52 55 56 40 34 35 32 31 31 30 30 25 21 20 21 22 27 29 31 33 32 29 24 19 20 25 27 26 24 23 24 23 20 19 18 16 17 17
43 45 48 49 48 50 53 56 42 33 33 31 32 30 33 32 30 28 26 22 19 18 22 27 29 34 35 32 26 22 19 23 26 28 26 24 24 23 21 21 20 20 22 21
44 47 48 47 48 51 51 46 36 31 30 30 32 32 32 36 34 32 28 23 20 19 16 23 30 33 37 35 31 25 20 22 25 26 27 26 23 22 20 19 19 19 20 20
44 45 44 46 47 42 37 36 33 28 28 27 29 32 36 36 34 28 29 22 17 17 17 18 28 33 38 38 34 29 24 20 25 24 24 25 26 25 22 20 20 20 21 22
42 41 43 46 47 40 33 33 29 26 24 24 28 28 31 28 17 17 27 24 18 14 14 14 22 31 37 40 37 32 27 23 22 22 21 22 23 24 24 23 22 22 23 22
40 42 44 45 41 33 30 27 25 20 20 21 25 26 25 21 13 5 17 22 21 16 13 14 16 27 35 40 41 35 30 26 21 19 20 21 22 22 22 22 20 19 19 19
41 42 42 40 32 29 27 23 21 19 18 19 22 22 21 19 13 4 8 13 16 14 13 14 13 21 31 38 42 38 32 28 25 19 16 19 21 22 21 19 18 19 20 21
42 41 37 28 25 26 22 19 19 20 18 17 16 18 18 15 11 7 4 6 9 11 11 12 11 16 25 36 40 40 34 30 26 22 17 16 18 20 19 20 21 21 21 21
40 35 28 21 21 22 21 20 21 21 17 15 18 20 16 14 11 7 6 6 7 9 11 11 11 15 22 34 37 41 37 33 29 25 20 18 17 19 19 18 18 18 19 21
33 28 19 16 18 17 15 16 16 14 15 18 18 13 11 13 12 10 8 7 8 10 12 12 14 15 21 31 34 38 39 35 32 28 24 22 21 21 21 20 20 20 23 27
28 19 14 13 13 13 13 13 14 16 17 16 12 11 12 9 10 9 10 14 13 10 10 11 13 16 21 29 31 33 35 30 29 29 27 26 24 22 23 24 25 28 32 32
22 15 13 10 11 11 10 11 13 14 14 14 12 10 7 8 10 9 6 3 4 6 7 9 13 15 20 27 29 30 35 32 22 25 26 27 25 24 25 28 30 30 30 30
17 14 13 10 12 13 11 11 12 13 12 14 13 10 9 9 8 5 3 7 3 4 5 4 7 11 18 27 28 22 25 28 22 22 25 28 27 26 25 26 28 29 30 31
16 15 14 12 12 12 10 11 12 11 9 10 10 10 10 12 12 9 6 4 6 3 8 7 9 10 18 28 28 25 17 19 18 17 18 22 25 26 27 27 28 30 32 34
Wind_Direction
311 306 305 309 311 313 315 316 316 316 317 314 311 309 306 301 298 298 292 289 296 295 283 288 278 288 279 280 280 276 275 273 276 277 261 259 268 274 292 282 281 265 253 245
309 306 306 311 311 312 313 313 315 317 317 315 311 308 304 300 297 296 292 282 284 277 275 284 277 287 284 279 280 275 271 275 280 266 248 258 257 276 292 284 280 275 254 241
307 304 305 307 310 311 312 313 314 316 315 311 309 306 301 297 297 295 291 286 283 272 272 285 290 292 280 277 277 271 268 284 271 252 250 249 264 278 283 279 260 244 253 244
306 305 306 307 309 308 310 314 315 315 312 310 309 305 298 295 292 291 290 283 283 281 272 276 280 286 279 276 268 269 267 281 262 244 254 258 272 282 293 282 258 253 229 232
304 305 305 309 307 310 313 313 315 313 313 312 308 305 302 298 296 293 288 282 275 274 260 263 270 271 275 274 263 270 269 283 241 242 260 266 276 306 305 282 249 239 238 243
304 304 306 309 308 309 312 314 312 312 312 308 306 306 300 297 292 288 286 281 273 265 260 260 267 263 270 275 259 266 262 269 236 247 253 261 283 293 304 286 243 239 224 224
301 302 306 308 308 312 313 314 313 314 310 310 310 306 302 296 292 286 281 276 269 258 255 258 265 260 269 274 254 260 260 258 233 236 245 263 271 254 307 299 228 207 185 196
300 304 306 307 310 312 311 313 313 310 309 310 308 305 302 297 289 283 277 271 264 252 247 248 256 254 258 270 252 256 256 238 223 222 221 247 258 263 250 73 147 160 168 160
303 305 305 308 310 311 313 312 310 310 310 307 306 304 298 288 282 279 275 268 259 254 244 242 244 251 256 263 244 238 237 219 217 227 225 238 249 232 232 196 180 150 161 162
302 303 306 310 310 311 312 311 311 311 310 310 309 305 300 291 279 272 270 268 257 248 247 244 247 247 249 252 240 226 221 217 212 222 230 230 214 211 193 173 183 186 177 186
303 305 309 309 310 311 312 313 312 313 313 312 310 309 306 298 285 277 272 270 264 246 241 241 242 238 237 237 237 220 219 213 206 211 212 218 222 213 208 200 203 208 204 202
303 306 308 309 309 311 312 311 312 313 312 306 304 306 309 309 300 300 294 286 274 253 240 237 234 231 230 224 232 222 219 214 214 207 205 212 220 217 215 215 234 232 219 214
303 306 309 308 308 310 311 311 313 314 309 307 305 304 303 303 299 299 290 277 276 257 242 234 228 226 223 217 226 228 219 216 215 214 216 216 220 219 220 227 240 245 239 233
303 308 309 310 312 312 313 314 314 315 312 310 307 309 309 302 296 291 290 280 272 263 246 234 223 222 219 213 220 228 222 219 216 214 213 216 220 227 233 231 233 234 244 242
305 307 309 310 313 313 314 314 318 314 312 313 312 304 298 294 288 281 278 275 279 266 250 235 224 220 215 212 215 225 224 218 216 217 215 214 219 224 219 217 221 229 235 240
307 310 311 314 314 314 316 316 318 313 311 309 308 306 306 298 284 270 265 266 268 257 243 236 222 218 215 211 212 221 222 217 213 213 219 219 219 220 220 224 228 234 241 245
308 310 313 314 314 316 313 310 314 314 309 312 318 320 316 305 285 261 246 251 260 256 236 231 223 216 215 210 211 213 220 218 211 208 213 218 218 220 222 225 230 234 237 240
308 311 312 313 313 316 312 313 313 310 311 322 325 327 335 334 311 254 229 235 249 267 239 230 224 215 212 210 208 208 213 212 208 205 211 213 212 214 217 222 226 230 236 241
309 311 313 314 316 314 314 314 312 311 317 320 325 332 352 356 351 256 215 231 243 259 259 238 225 216 209 211 206 207 209 211 209 201 208 216 218 215 216 219 224 229 231 234
308 311 313 315 314 315 318 318 314 320 317 318 323 327 339 357 358 323 232 238 247 251 252 245 236 217 209 210 206 203 208 208 211 205 207 212 216 218 216 213 216 222 224 227
308 312 313 312 311 315 320 319 320 317 320 322 321 336 330 329 338 350 305 254 246 238 238 248 246 221 211 207 206 202 207 207 209 207 210 217 219 215 211 211 213 217 223 228
308 309 310 307 311 319 320 324 328 324 324 314 317 322 322 323 313 299 293 279 252 234 236 243 242 225 213 204 207 202 205 208 208 208 212 219 225 223 218 218 221 226 232 237
304 306 300 301 313 319 324 336 332 331 327 323 327 328 335 336 319 276 268 256 257 259 256 251 244 228 213 203 208 203 205 207 209 210 214 218 225 227 223 219 220 225 232 234
300 293 285 289 307 318 331 339 343 336 330 322 308 305 314 332 343 328 291 269 266 273 258 243 243 225 209 201 204 201 200 198 208 212 218 223 226 231 231 224 222 226 233 242
294 274 266 271 295 312 332 340 344 342 349 346 338 332 332 291 321 322 318 302 238 248 235 226 232 221 204 197 199 192 194 194 208 212 220 226 229 233 234 234 238 244 248 255
273 252 250 259 287 296 308 326 327 329 341 2 18 23 20 12 7 349 319 340 3 142 109 167 209 201 193 188 189 183 195 208 216 220 224 225 230 238 247 252 254 256 259 261
246 243 241 256 277 283 292 303 305 315 328 358 21 31 29 20 10 7 13 68 148 73 128 119 117 150 176 173 176 179 181 193 203 211 220 228 234 241 247 251 255 259 261 266
Height
5691 5684 5679 5677 5671 5666 5660 5653 5648 5645 5639 5635 5630 5624 5619 5614 5608 5604 5601 5598 5597 5596 5594 5593 5593 5592 5591 5590 5589 5587 5586 5586 5585 5584 5583 5583 5582 5581 5578 5575 5573 5572 5571 5574
5682 5676 5672 5668 5661 5656 5650 5645 5640 5634 5630 5625 5620 5615 5610 5605 5600 5596 5594 5592 5590 5588 5587 5586 5585 5584 5583 5582 5581 5580 5579 5578 5577 5576 5576 5576 5574 5572 5570 5568 5566 5565 5566 5568
5673 5667 5662 5658 5654 5648 5642 5635 5630 5625 5621 5615 5610 5605 5601 5596 5592 5588 5586 5584 5582 5580 5580 5579 5577 5577 5576 5575 5574 5573 5572 5571 5570 5569 5570 5569 5569 5567 5564 5561 5560 5561 5562 5563
5661 5656 5652 5648 5643 5637 5632 5626 5620 5615 5610 5606 5601 5596 5590 5587 5583 5581 5578 5576 5574 5572 5572 5571 5570 5569 5568 5569 5567 5567 5566 5566 5564 5564 5564 5565 5564 5561 5557 5554 5554 5556 5558 5560
5650 5646 5640 5637 5630 5626 5621 5617 5612 5605 5600 5595 5591 5587 5581 5577 5573 5571 5569 5567 5565 5565 5564 5562 5562 5562 5562 5561 5561 5560 5560 5560 5559 5559 5560 5560 5559 5555 5552 5549 5548 5550 5553 5557
5640 5635 5629 5626 5619 5615 5609 5607 5601 5596 5590 5585 5579 5577 5572 5565 5562 5560 5557 5556 5556 5556 5555 5555 5555 5556 5556 5555 5554 5555 5554 5555 5555 5556 5557 5557 5557 5554 5550 5547 5546 5545 5548 5552
5628 5624 5622 5616 5609 5604 5599 5597 5588 5583 5577 5572 5567 5562 5560 5554 5550 5548 5546 5545 5544 5546 5546 5547 5548 5549 5550 5549 5548 5548 5548 5549 5550 5552 5553 5553 5553 5553 5551 5548 5545 5545 5546 5549
5619 5615 5612 5607 5601 5595 5591 5584 5579 5573 5566 5560 5554 5549 5544 5540 5537 5534 5533 5533 5532 5535 5536 5538 5540 5541 5542 5543 5542 5543 5543 5544 5546 5548 5550 5551 5551 5551 5550 5549 5547 5546 5549 5552
5611 5606 5600 5596 5590 5585 5580 5574 5566 5561 5555 5547 5542 5536 5531 5527 5522 5520 5518 5519 5519 5522 5526 5527 5530 5533 5535 5536 5536 5537 5539 5539 5542 5544 5547 5549 5549 5549 5550 5550 5550 5550 5552 5555
5601 5597 5591 5584 5579 5574 5568 5562 5554 5547 5541 5533 5526 5519 5515 5511 5509 5506 5505 5505 5507 5510 5514 5518 5520 5524 5527 5530 5530 5531 5534 5535 5537 5541 5543 5545 5547 5548 5550 5551 5552 5553 5555 5557
5591 5586 5580 5574 5569 5564 5556 5548 5541 5533 5523 5517 5510 5507 5500 5499 5496 5494 5494 5493 5495 5498 5502 5507 5511 5514 5518 5522 5524 5525 5528 5531 5533 5536 5539 5542 5544 5546 5548 5550 5552 5553 5554 5556
5581 5576 5571 5564 5558 5552 5545 5538 5529 5522 5515 5507 5500 5497 5493 5490 5487 5486 5486 5485 5485 5487 5491 5497 5502 5506 5510 5515 5517 5520 5523 5525 5528 5531 5535 5538 5540 5542 5545 5547 5550 5551 5553 5554
5570 5565 5560 5555 5548 5541 5535 5526 5518 5509 5501 5498 5493 5488 5485 5483 5481 5479 5477 5476 5476 5476 5480 5487 5492 5497 5502 5507 5511 5514 5517 5520 5523 5526 5530 5534 5536 5539 5542 5545 5547 5548 5551 5553
5561 5556 5550 5543 5538 5529 5522 5514 5506 5498 5493 5488 5485 5481 5477 5475 5473 5472 5470 5469 5469 5470 5472 5477 5483 5487 5494 5500 5505 5508 5511 5514 5518 5521 5525 5529 5532 5535 5538 5541 5543 5545 5548 5550
5549 5545 5540 5533 5525 5518 5509 5502 5496 5490 5485 5480 5475 5474 5471 5467 5465 5463 5463 5463 5463 5463 5464 5468 5474 5479 5486 5493 5498 5502 5505 5509 5512 5516 5519 5523 5526 5529 5532 5535 5538 5540 5542 5545
5537 5532 5526 5520 5512 5505 5498 5490 5487 5483 5478 5473 5468 5464 5459 5455 5453 5451 5453 5455 5455 5456 5458 5460 5464 5471 5478 5485 5491 5497 5500 5503 5507 5510 5514 5518 5521 5524 5527 5531 5534 5536 5539 5542
5528 5521 5516 5509 5502 5494 5488 5484 5480 5475 5471 5466 5460 5455 5449 5441 5436 5437 5442 5446 5448 5449 5451 5453 5457 5462 5469 5477 5484 5490 5495 5498 5501 5505 5509 5512 5515 5519 5522 5526 5529 5531 5534 5536
5518 5513 5508 5503 5495 5488 5482 5476 5472 5468 5464 5460 5455 5449 5440 5431 5425 5426 5433 5438 5442 5444 5446 5447 5450 5454 5461 5468 5476 5484 5489 5494 5497 5500 5503 5507 5510 5513 5516 5520 5523 5526 5529 5531
5508 5502 5496 5491 5485 5480 5476 5471 5466 5463 5459 5455 5451 5445 5438 5431 5426 5425 5428 5433 5437 5440 5441 5442 5444 5447 5453 5460 5469 5477 5483 5489 5493 5495 5498 5502 5505 5508 5511 5514 5517 5520 5522 5525
5499 5492 5486 5481 5478 5474 5469 5465 5461 5458 5454 5451 5447 5442 5437 5432 5429 5428 5428 5430 5433 5435 5436 5438 5439 5442 5446 5453 5461 5470 5477 5483 5488 5491 5494 5497 5500 5503 5506 5509 5512 5515 5518 5520
5489 5483 5478 5474 5472 5469 5465 5461 5457 5453 5450 5446 5444 5441 5437 5433 5430 5428 5428 5428 5429 5430 5432 5434 5435 5437 5441 5446 5454 5463 5470 5477 5482 5486 5490 5493 5497 5500 5503 5505 5508 5510 5512 5515
5479 5475 5471 5469 5467 5464 5461 5457 5452 5449 5445 5443 5440 5437 5434 5431 5429 5427 5426 5426 5426 5427 5428 5429 5430 5432 5436 5441 5447 5457 5464 5470 5477 5481 5485 5489 5492 5495 5498 5500 5502 5504 5506 5509
5471 5468 5466 5465 5464 5461 5457 5453 5450 5446 5443 5439 5436 5433 5431 5428 5425 5425 5424 5424 5423 5424 5424 5425 5426 5427 5431 5436 5442 5451 5458 5465 5471 5476 5480 5484 5487 5490 5493 5495 5497 5499 5501 5501
5464 5462 5462 5462 5460 5457 5454 5451 5448 5445 5441 5436 5433 5431 5428 5426 5424 5421 5420 5419 5420 5420 5420 5421 5422 5423 5427 5432 5438 5446 5454 5460 5465 5470 5475 5479 5482 5485 5487 5489 5491 5492 5492 5494
5457 5457 5458 5458 5457 5454 5452 5449 5447 5443 5439 5435 5431 5428 5425 5424 5422 5420 5418 5416 5416 5416 5417 5417 5419 5420 5423 5429 5435 5442 5449 5456 5461 5466 5470 5473 5476 5479 5481 5483 5484 5486 5488 5489
5450 5452 5453 5453 5453 5451 5449 5447 5445 5443 5439 5435 5431 5428 5426 5423 5421 5420 5418 5416 5416 5416 5416 5416 5417 5419 5422 5428 5434 5442 5449 5453 5457 5461 5464 5467 5470 5473 5476 5477 5479 5480 5481 5481
5445 5447 5448 5449 5448 5448 5446 5445 5443 5441 5438 5436 5433 5430 5427 5425 5422 5419 5417 5416 5417 5417 5418 5418 5419 5421 5424 5430 5436 5441 5446 5450 5454 5457 5460 5463 5465 5467 5469 5470 5471 5472 5472 5472